Theta_e
352 353 355 355 354 357 355 358 360 360 362 360 364 363 364 364 365 359 360 363 361 360 363 364 363 368 357 355 356 354 350 354 352 350 352 349 348 360 360 363 361 361 357
353 355 352 353 355 353 356 355 355 357 362 361 364 364 363 368 369 365 362 361 361 360 362 367 363 365 365 365 356 363 366 360 358 352 357 361 360 361 366 366 358 356 358
353 352 352 351 353 353 353 354 355 358 358 360 366 364 366 369 368 366 368 367 364 363 365 364 354 354 354 361 359 354 353 358 359 353 355 352 353 354 359 364 366 363 358
351 351 353 352 352 351 353 356 356 358 358 361 363 369 370 369 369 369 368 365 366 361 365 362 362 361 359 362 360 360 358 354 354 350 349 346 354 356 361 350 349 360 355
356 355 356 361 359 360 359 359 359 361 365 372 367 367 366 366 349 354 363 368 367 363 364 361 358 352 345 344 354 356 361 354 346 357 351 342 345 351 352 348 345 354 358
359 359 367 365 365 363 363 363 369 367 366 365 363 361 358 349 332 339 353 365 363 361 360 360 358 350 346 341 340 341 340 351 351 354 350 345 340 341 342 344 342 342 346
360 363 364 365 365 365 364 363 362 361 362 360 357 355 344 338 327 332 343 361 360 359 358 358 356 352 350 353 343 340 341 339 339 347 349 352 349 350 347 344 345 347 345
362 363 365 362 360 361 360 357 358 357 354 352 350 348 342 331 325 327 332 354 355 354 352 352 353 348 334 342 352 352 352 352 350 351 352 353 356 356 355 355 353 353 352
362 361 360 360 358 357 355 353 353 349 346 344 344 344 341 333 321 323 332 348 347 348 345 341 344 342 323 324 348 349 349 350 344 340 339 337 338 338 340 348 353 346 342
361 360 359 358 354 350 348 347 345 344 341 340 340 340 332 334 319 320 326 339 344 344 347 339 325 327 320 321 341 342 341 338 340 341 345 345 342 349 338 350 347 343 341
357 352 349 348 347 346 346 346 345 344 342 340 339 338 336 333 329 319 321 340 335 334 334 334 334 323 321 324 328 338 333 335 340 340 339 339 347 344 342 343 348 339 337
347 345 346 346 342 342 344 344 343 342 339 338 338 335 336 335 322 319 321 324 330 336 334 334 330 320 318 319 329 323 327 331 335 334 334 334 334 334 334 338 344 344 342
344 343 343 345 342 342 340 339 335 340 336 337 331 330 330 334 333 322 322 325 325 333 333 326 324 319 319 323 322 324 328 330 330 329 328 329 330 332 336 338 340 345 344
342 342 341 339 338 339 335 335 333 332 331 330 330 328 325 324 325 331 333 332 327 332 326 332 329 326 325 325 323 322 322 319 319 317 317 318 319 319 318 320 318 319 319
341 339 338 336 337 336 330 326 332 321 318 327 326 323 320 316 313 306 309 322 322 317 314 325 323 320 319 319 319 319 319 318 317 317 316 316 316 317 317 318 318 318 316
338 336 334 335 334 333 331 323 307 307 305 304 304 312 313 306 302 300 299 299 304 307 319 319 318 318 318 318 318 318 319 319 318 317 316 316 315 314 314 315 316 315 313
342 337 334 332 333 331 329 323 315 312 305 302 300 302 302 303 300 298 300 302 307 307 320 319 318 319 318 319 319 318 318 319 323 317 316 315 314 314 313 313 313 313 312
340 324 336 334 333 331 329 325 320 317 315 315 307 311 299 299 299 298 302 303 319 317 320 320 320 321 321 320 320 319 319 319 319 317 316 315 314 312 311 311 311 311 310
337 334 334 333 332 329 330 327 324 323 320 319 318 311 305 298 298 299 301 320 320 319 321 320 321 320 320 320 320 320 321 319 318 318 316 314 313 312 311 310 310 306 307
334 328 329 331 330 331 330 327 326 324 322 321 321 323 322 318 320 322 323 323 320 319 319 320 321 321 321 321 321 320 319 318 319 317 316 314 313 312 310 309 309 309 309
330 329 328 330 329 330 328 326 325 323 320 320 321 316 304 319 321 321 320 320 320 318 319 319 319 320 321 321 320 319 318 318 318 317 315 314 313 311 310 310 310 309 308
329 328 329 329 329 328 327 327 323 321 320 318 320 315 306 315 319 319 320 319 318 318 318 318 317 317 317 317 318 318 317 317 317 315 313 312 311 309 309 309 308 308 307
329 328 328 328 328 323 327 325 321 320 319 318 319 318 316 318 318 318 318 319 318 318 318 317 316 315 316 316 317 317 317 316 315 313 311 310 309 309 308 307 307 306 306
328 327 327 326 326 325 323 321 320 314 319 318 317 317 317 317 318 318 319 320 319 318 317 316 315 316 317 317 317 316 312 310 312 311 310 308 308 306 307 307 307 308 308
326 325 324 324 323 320 320 320 320 320 319 318 317 317 318 318 319 319 320 321 320 318 317 315 315 315 316 317 317 315 293 292 304 293 308 308 306 307 307 307 308 309 309
325 323 321 320 318 320 319 320 320 320 319 319 319 319 319 319 319 321 321 321 320 319 317 315 314 314 314 315 311 295 288 290 298 285 299 304 306 306 308 308 308 307 308
Wind_Speed
15 14 13 12 13 13 12 10 10 9 8 8 8 9 10 11 11 7 8 10 10 10 11 8 11 10 8 8 8 7 7 5 6 10 3 8 13 14 7 6 8 10 11
15 13 13 13 12 12 12 11 10 9 8 8 9 10 11 11 10 11 10 10 11 12 11 10 10 7 9 9 9 6 4 4 4 8 8 5 4 13 7 8 7 10 11
14 14 14 14 13 13 12 10 10 9 8 10 10 10 11 10 9 10 11 11 13 9 10 9 6 11 8 8 8 7 5 4 3 5 8 8 8 8 8 7 6 9 7
12 12 11 11 11 11 10 8 7 7 8 8 9 8 7 8 9 9 9 8 10 8 8 8 7 7 7 7 6 7 5 6 7 7 7 4 5 11 5 3 6 8 8
9 8 7 7 7 5 4 5 6 6 7 5 3 5 5 6 8 9 10 8 7 8 6 4 5 4 7 6 4 3 5 7 7 2 5 3 7 7 7 1 5 14 10
10 9 8 7 6 6 5 7 5 1 4 1 2 4 7 6 13 13 8 7 5 4 4 2 3 3 1 4 6 6 6 6 8 5 5 4 5 4 3 3 1 14 5
9 8 8 8 7 5 5 5 5 5 4 5 5 6 8 8 13 11 12 5 4 5 6 5 2 5 1 3 8 8 8 8 9 9 7 5 6 4 3 6 3 2 5
10 10 9 9 7 7 7 7 5 5 5 4 5 5 7 7 13 12 12 3 6 8 8 8 8 7 8 8 6 4 5 3 6 5 5 5 5 5 4 5 5 6 5
12 10 8 8 9 9 8 7 6 6 5 5 6 5 6 8 13 14 13 3 6 6 8 10 7 5 9 10 6 5 4 4 3 3 2 2 3 3 5 6 4 4 4
12 10 9 8 8 8 8 7 6 6 6 6 6 6 7 7 11 13 13 4 3 5 8 8 14 8 6 6 5 6 6 7 6 5 5 6 6 5 5 4 6 6 4
11 11 9 9 9 9 9 8 7 6 7 6 6 7 8 7 8 11 13 3 4 3 6 9 7 8 8 9 6 7 4 6 5 6 3 2 3 6 5 4 4 5 5
12 11 10 10 8 8 9 8 8 7 7 6 6 7 7 7 7 8 10 9 11 7 7 7 6 3 7 9 7 8 9 8 6 5 7 7 6 6 8 8 6 7 6
12 12 11 10 10 9 9 9 8 6 7 6 5 4 5 7 7 5 6 8 11 7 7 5 4 8 4 5 4 7 7 7 6 5 4 4 3 4 5 5 5 5 7
13 12 11 11 10 10 8 7 6 5 4 4 3 4 5 5 5 4 4 6 6 6 5 5 3 4 4 4 2 5 7 7 7 7 7 7 7 7 6 6 8 8 9
13 12 12 10 10 8 10 8 10 9 8 4 3 7 3 7 5 5 7 8 8 6 9 2 3 4 4 4 5 5 6 6 7 6 6 6 6 7 6 7 7 7 7
13 11 10 10 10 9 8 10 17 11 15 15 17 11 10 10 4 5 8 9 10 8 3 3 4 4 4 5 4 5 5 6 7 7 7 7 7 8 8 9 8 8 9
11 12 11 10 9 9 9 9 9 8 12 13 12 12 13 8 4 6 9 12 12 9 2 3 4 4 4 4 4 4 4 4 4 6 7 7 7 8 8 9 8 8 9
12 9 10 9 9 10 10 9 9 8 8 7 3 4 7 5 0 4 5 7 8 5 3 3 3 2 2 3 4 4 4 6 4 5 7 7 8 8 9 9 10 10 10
11 10 9 8 9 9 10 10 10 9 8 8 8 4 6 7 6 8 7 7 4 4 2 3 3 4 4 4 4 5 5 6 4 4 5 6 8 8 9 9 10 10 9
12 11 8 9 8 9 9 9 8 7 6 7 8 8 9 8 8 10 9 0 3 4 5 5 4 4 4 5 6 6 7 7 6 5 5 6 7 8 10 11 10 11 11
12 11 10 9 10 9 8 8 7 6 6 5 5 8 8 5 1 1 2 2 3 5 5 5 6 6 6 6 6 7 8 8 7 6 6 6 8 9 10 10 10 11 12
13 14 11 10 9 9 8 7 7 6 5 6 7 6 2 6 2 0 1 1 3 3 4 4 6 7 7 7 7 8 8 8 8 8 8 9 10 10 10 11 12 12 12
13 15 14 11 10 9 8 7 7 6 6 4 4 9 8 5 2 2 1 2 3 3 4 5 5 6 6 7 8 7 8 7 6 8 9 10 10 10 10 11 12 12 12
13 14 15 12 10 10 9 9 7 5 6 5 4 3 3 3 3 6 3 2 3 5 5 5 5 6 7 6 6 8 10 8 7 8 10 10 10 11 11 12 12 14 13
11 10 12 12 11 10 9 8 8 7 6 6 5 4 4 4 3 3 0 1 3 4 6 5 4 4 6 7 6 8 7 8 7 6 8 11 12 14 13 11 12 12 15
7 6 7 10 10 9 9 8 8 8 7 5 5 4 4 3 3 2 3 3 3 5 6 5 5 5 5 6 10 8 6 3 5 5 7 10 11 11 10 13 16 10 14
Wind_Direction
211 218 207 211 215 213 229 221 229 240 242 241 244 248 243 234 224 222 237 261 227 240 248 238 222 237 251 243 209 236 240 232 239 274 280 186 228 337 172 194 210 214 188
207 212 216 213 229 219 220 232 229 231 232 226 238 247 250 258 246 231 231 239 237 245 246 254 253 234 229 249 262 240 322 332 293 272 277 301 253 226 286 246 233 213 218
198 198 212 204 209 226 232 225 235 216 221 226 227 243 253 253 262 244 250 242 247 239 246 246 268 271 253 228 240 259 263 287 279 269 286 282 271 237 250 270 260 246 265
200 201 191 216 206 222 204 214 211 216 226 248 255 258 266 268 257 264 261 253 262 268 260 267 254 255 249 250 242 242 258 258 233 236 254 288 290 287 289 319 290 266 249
196 184 190 200 210 202 211 202 219 229 237 242 254 257 291 291 27 338 318 294 261 253 255 236 257 77 45 19 298 314 258 234 259 337 292 319 292 281 280 31 310 274 221
162 200 168 178 177 186 200 217 217 104 68 98 66 53 28 44 5 350 332 299 313 307 296 297 102 75 189 339 328 325 316 305 279 300 292 248 260 280 313 313 316 289 344
165 177 151 176 170 127 116 109 115 95 94 76 67 81 64 21 0 353 338 356 23 29 28 16 69 65 335 259 229 257 278 261 252 284 291 282 293 256 279 295 269 244 301
156 154 134 116 124 124 121 113 109 93 80 77 73 63 62 41 360 353 344 37 51 59 46 43 65 77 35 355 333 321 313 310 236 248 273 300 308 326 305 296 303 298 278
145 123 136 141 141 140 136 128 119 115 109 101 82 70 77 38 3 355 348 202 85 80 68 46 59 63 13 358 343 357 352 57 122 147 188 235 262 266 283 300 286 296 294
136 133 136 133 131 125 125 127 115 125 126 108 94 90 67 57 19 356 356 75 62 120 123 86 50 33 19 356 10 3 345 44 346 332 308 230 230 245 190 304 336 321 314
128 128 131 131 122 122 121 126 129 93 96 94 100 95 73 41 40 7 4 46 27 96 73 69 56 28 34 20 43 34 11 314 289 239 254 268 80 50 41 26 46 336 327
132 132 132 139 133 126 121 115 112 121 118 130 152 144 108 75 37 39 17 22 350 71 81 94 99 24 74 36 46 353 327 337 354 355 22 25 10 14 2 350 9 341 333
137 136 142 123 120 125 125 131 137 163 155 174 162 109 98 126 111 116 62 30 27 67 75 87 144 185 188 115 61 333 337 14 6 19 15 14 357 350 316 306 340 302 299
137 140 134 136 136 139 154 170 153 153 149 146 138 115 94 67 35 15 143 162 128 146 157 174 131 42 45 64 24 29 34 24 7 13 4 2 351 356 339 356 334 335 328
145 148 154 143 156 135 64 10 91 54 21 89 71 57 89 86 61 5 9 17 6 24 316 12 49 40 55 41 55 51 53 21 14 7 1 356 348 345 338 352 319 324 325
157 164 160 161 165 131 132 85 51 53 49 52 46 69 70 85 90 27 7 349 327 330 288 56 58 40 31 26 25 18 38 28 7 353 354 351 346 340 345 321 332 326 321
176 166 159 158 155 149 137 136 121 77 66 58 63 65 70 103 63 6 349 338 301 311 202 60 39 25 17 8 4 6 9 42 322 356 342 341 343 336 332 328 330 323 326
179 155 167 166 156 155 149 146 142 148 141 130 105 87 102 112 172 289 295 312 261 213 34 28 358 2 348 345 337 344 354 321 12 351 333 348 342 337 329 332 325 331 329
161 171 176 164 167 155 154 159 163 160 153 145 138 189 172 206 231 270 284 274 345 334 10 330 331 331 352 332 340 313 318 299 322 298 329 340 335 329 329 322 322 315 319
168 159 166 163 150 167 163 175 158 160 162 169 187 166 163 181 211 213 217 45 318 329 355 331 317 324 311 313 297 298 294 310 314 312 347 330 325 329 322 321 319 321 318
154 156 168 158 168 170 174 172 159 168 182 167 126 73 56 303 296 120 274 43 346 0 2 344 334 322 302 290 315 307 305 311 319 325 342 334 327 317 320 316 316 318 315
154 155 162 160 165 166 177 171 167 182 173 168 130 123 159 248 263 135 98 328 32 356 340 341 315 326 324 316 315 318 315 317 338 350 346 332 321 321 317 322 319 314 317
162 160 155 163 163 160 167 167 180 172 172 172 159 153 185 215 122 136 144 39 7 340 348 332 332 319 327 329 325 314 303 339 360 9 329 323 322 318 320 313 318 310 308
167 170 149 155 157 167 172 172 169 163 169 161 169 155 150 184 169 125 256 18 351 354 344 338 330 324 336 321 320 47 40 24 353 338 345 314 308 319 316 308 303 305 304
171 169 146 147 153 175 161 179 165 179 191 159 167 188 185 191 177 178 231 355 343 331 338 325 310 346 328 339 298 58 66 44 8 337 313 317 307 304 295 301 310 323 326
153 163 145 145 173 167 170 180 170 181 186 181 182 183 207 222 217 223 264 279 302 333 320 331 320 304 306 292 72 100 109 56 341 336 311 299 297 307 312 312 314 307 296